Time,TemperatureF,DewpointF,PressureIn,WindDirection,WindDirectionDegrees,WindSpeedMPH,WindSpeedGustMPH,Humidity,HourlyPrecipIn,Conditions,Clouds,dailyrainin,SoftwareType,DateUTC
2013-03-11 00:00:00,51.1,22.9,30.18,SE,135,3.1,6.3,33,0.00,,,0.00,WUHU216HW,2013-03-11 04:00:00,
2013-03-11 00:01:00,50.9,22.7,30.17,SSE,158,6.0,6.3,33,0.00,,,0.00,WUHU216HW,2013-03-11 04:01:00,
2013-03-11 00:06:00,51.1,23.5,30.17,SE,135,2.0,6.0,34,0.00,,,0.00,WUHU216HW,2013-03-11 04:06:00,
2013-03-11 00:11:00,50.9,22.7,30.17,SSE,158,5.6,8.7,33,0.00,,,0.00,WUHU216HW,2013-03-11 04:11:00,
2013-03-11 00:16:00,50.9,22.7,30.17,SE,135,5.8,8.7,33,0.00,,,0.00,WUHU216HW,2013-03-11 04:16:00,
2013-03-11 00:21:00,50.9,22.7,30.17,SE,135,3.8,8.5,33,0.00,,,0.00,WUHU216HW,2013-03-11 04:21:00,
2013-03-11 00:26:00,51.1,22.9,30.17,East,90,2.9,8.5,33,0.00,,,0.00,WUHU216HW,2013-03-11 04:26:00,
2013-03-11 00:31:00,51.1,22.9,30.16,SSE,158,3.4,7.6,33,0.00,,,0.00,WUHU216HW,2013-03-11 04:31:00,
2013-03-11 00:36:00,50.8,22.5,30.16,SSW,203,3.4,6.7,33,0.00,,,0.00,WUHU216HW,2013-03-11 04:36:00,
2013-03-11 00:41:00,50.8,22.5,30.16,North,0,3.6,6.7,33,0.00,,,0.00,WUHU216HW,2013-03-11 04:41:00,
2013-03-11 00:46:00,50.6,22.3,30.16,ESE,113,4.5,6.5,33,0.00,,,0.00,WUHU216HW,2013-03-11 04:46:00,
2013-03-11 00:51:00,50.6,22.3,30.16,SSW,203,3.1,6.7,33,0.00,,,0.00,WUHU216HW,2013-03-11 04:51:00,
2013-03-11 00:56:00,50.4,22.1,30.17,South,180,2.7,6.7,33,0.00,,,0.00,WUHU216HW,2013-03-11 04:56:00,
2013-03-11 01:01:00,50.2,22.7,30.17,ESE,113,3.1,6.9,34,0.00,,,0.00,WUHU216HW,2013-03-11 05:01:00,
2013-03-11 01:06:00,50.0,22.5,30.17,SE,135,4.0,6.9,34,0.00,,,0.00,WUHU216HW,2013-03-11 05:06:00,
2013-03-11 01:11:00,49.7,22.2,30.17,ESE,113,2.7,5.8,34,0.00,,,0.00,WUHU216HW,2013-03-11 05:11:00,
2013-03-11 01:16:00,49.5,23.4,30.17,SW,225,3.4,5.8,36,0.00,,,0.00,WUHU216HW,2013-03-11 05:16:00,
2013-03-11 01:21:00,49.3,23.3,30.17,SW,225,2.2,5.4,36,0.00,,,0.00,WUHU216HW,2013-03-11 05:21:00,
2013-03-11 01:26:00,49.0,23.7,30.16,SE,135,2.2,4.0,37,0.00,,,0.00,WUHU216HW,2013-03-11 05:26:00,
2013-03-11 01:31:00,49.0,23.7,30.16,SSW,203,1.3,4.7,37,0.00,,,0.00,WUHU216HW,2013-03-11 05:31:00,
2013-03-11 01:36:00,48.6,23.3,30.15,ESE,113,3.1,4.7,37,0.00,,,0.00,WUHU216HW,2013-03-11 05:36:00,
2013-03-11 01:41:00,48.6,24.0,30.15,SE,135,2.2,5.1,38,0.00,,,0.00,WUHU216HW,2013-03-11 05:41:00,
2013-03-11 01:46:00,48.6,24.0,30.15,SSW,203,2.7,5.1,38,0.00,,,0.00,WUHU216HW,2013-03-11 05:46:00,
2013-03-11 01:51:00,48.6,24.0,30.15,SSE,158,3.6,5.8,38,0.00,,,0.00,WUHU216HW,2013-03-11 05:51:00,
2013-03-11 01:56:00,48.6,24.0,30.15,South,180,1.1,5.8,38,0.00,,,0.00,WUHU216HW,2013-03-11 05:56:00,
2013-03-11 02:01:00,48.6,24.0,30.15,NW,315,0.4,5.4,38,0.00,,,0.00,WUHU216HW,2013-03-11 06:01:00,
2013-03-11 02:06:00,48.6,24.0,30.15,ENE,68,2.5,5.4,38,0.00,,,0.00,WUHU216HW,2013-03-11 06:06:00,
2013-03-11 02:11:00,48.4,23.9,30.16,SE,135,3.1,6.9,38,0.00,,,0.00,WUHU216HW,2013-03-11 06:11:00,
2013-03-11 02:16:00,48.2,24.4,30.15,NE,45,1.6,6.9,39,0.00,,,0.00,WUHU216HW,2013-03-11 06:16:00,
2013-03-11 02:21:00,48.1,24.2,30.15,SSW,203,4.0,6.0,39,0.00,,,0.00,WUHU216HW,2013-03-11 06:21:00,
2013-03-11 02:26:00,47.9,24.7,30.15,South,180,2.5,5.4,40,0.00,,,0.00,WUHU216HW,2013-03-11 06:26:00,
2013-03-11 02:31:00,47.9,24.7,30.15,ENE,68,2.9,5.4,40,0.00,,,0.00,WUHU216HW,2013-03-11 06:31:00,
2013-03-11 02:36:00,47.9,24.7,30.15,SW,225,4.7,4.7,40,0.00,,,0.00,WUHU216HW,2013-03-11 06:36:00,
2013-03-11 02:41:00,47.9,24.7,30.14,WSW,248,0.9,6.7,40,0.00,,,0.00,WUHU216HW,2013-03-11 06:41:00,
2013-03-11 02:46:00,48.1,25.4,30.14,SE,135,2.9,6.7,41,0.00,,,0.00,WUHU216HW,2013-03-11 06:46:00,
2013-03-11 02:51:00,48.1,25.9,30.14,WSW,248,1.8,6.3,42,0.00,,,0.00,WUHU216HW,2013-03-11 06:51:00,
2013-03-11 02:56:00,47.9,25.7,30.14,SE,135,2.2,5.8,42,0.00,,,0.00,WUHU216HW,2013-03-11 06:56:00,
2013-03-11 03:01:00,47.9,25.7,30.14,SSE,158,4.0,5.1,42,0.00,,,0.00,WUHU216HW,2013-03-11 07:01:00,
2013-03-11 03:06:00,47.9,26.3,30.14,ESE,113,4.3,5.1,43,0.00,,,0.00,WUHU216HW,2013-03-11 07:06:00,
2013-03-11 03:11:00,47.7,26.7,30.13,SE,135,1.8,5.1,44,0.00,,,0.00,WUHU216HW,2013-03-11 07:11:00,
2013-03-11 03:16:00,47.5,26.6,30.13,SE,135,4.3,4.9,44,0.00,,,0.00,WUHU216HW,2013-03-11 07:16:00,
2013-03-11 03:21:00,47.3,26.9,30.14,SE,135,2.2,4.9,45,0.00,,,0.00,WUHU216HW,2013-03-11 07:21:00,
2013-03-11 03:26:00,47.2,26.7,30.14,SSE,158,2.9,4.9,45,0.00,,,0.00,WUHU216HW,2013-03-11 07:26:00,
2013-03-11 03:31:00,47.2,27.3,30.13,SSE,158,1.8,4.5,46,0.00,,,0.00,WUHU216HW,2013-03-11 07:31:00,
2013-03-11 03:36:00,47.2,27.3,30.13,SE,135,1.3,4.0,46,0.00,,,0.00,WUHU216HW,2013-03-11 07:36:00,
2013-03-11 03:41:00,47.2,27.8,30.13,SE,135,1.8,4.0,47,0.00,,,0.00,WUHU216HW,2013-03-11 07:41:00,
2013-03-11 03:46:00,47.0,27.6,30.13,SSE,158,1.8,3.6,47,0.00,,,0.00,WUHU216HW,2013-03-11 07:46:00,
2013-03-11 03:51:00,47.0,27.6,30.12,SE,135,1.8,3.6,47,0.00,,,0.00,WUHU216HW,2013-03-11 07:51:00,
2013-03-11 03:56:00,47.0,27.6,30.12,SE,135,2.9,3.4,47,0.00,,,0.00,WUHU216HW,2013-03-11 07:56:00,
2013-03-11 04:02:00,47.2,27.8,30.12,SE,135,3.6,4.5,47,0.00,,,0.00,WUHU216HW,2013-03-11 08:02:00,
2013-03-11 04:07:00,47.2,27.8,30.11,SE,135,4.0,5.1,47,0.00,,,0.00,WUHU216HW,2013-03-11 08:07:00,
2013-03-11 04:12:00,47.2,28.4,30.11,ESE,113,4.5,5.1,48,0.00,,,0.00,WUHU216HW,2013-03-11 08:12:00,
2013-03-11 04:17:00,47.2,28.4,30.10,SW,225,2.0,4.9,48,0.00,,,0.00,WUHU216HW,2013-03-11 08:17:00,
2013-03-11 04:22:00,47.2,28.4,30.10,SE,135,1.1,4.7,48,0.00,,,0.00,WUHU216HW,2013-03-11 08:22:00,
2013-03-11 04:27:00,47.2,28.4,30.10,SSW,203,3.6,4.0,48,0.00,,,0.00,WUHU216HW,2013-03-11 08:27:00,
2013-03-11 04:32:00,47.2,28.4,30.10,SSE,158,2.5,4.0,48,0.00,,,0.00,WUHU216HW,2013-03-11 08:32:00,
2013-03-11 04:37:00,47.0,28.7,30.10,SE,135,3.4,4.3,49,0.00,,,0.00,WUHU216HW,2013-03-11 08:37:00,
2013-03-11 04:42:00,47.0,29.3,30.10,SE,135,3.4,4.7,50,0.00,,,0.00,WUHU216HW,2013-03-11 08:42:00,
2013-03-11 04:47:00,46.6,29.9,30.10,SSE,158,2.5,4.9,52,0.00,,,0.00,WUHU216HW,2013-03-11 08:47:00,
2013-03-11 04:52:00,46.4,30.2,30.10,ENE,68,2.7,5.8,53,0.00,,,0.00,WUHU216HW,2013-03-11 08:52:00,
2013-03-11 04:57:00,46.1,30.7,30.10,SSE,158,3.4,5.8,55,0.00,,,0.00,WUHU216HW,2013-03-11 08:57:00,
2013-03-11 05:02:00,45.9,31.1,30.10,SE,135,4.5,5.6,56,0.00,,,0.00,WUHU216HW,2013-03-11 09:02:00,
2013-03-11 05:07:00,45.7,31.3,30.10,ESE,113,2.7,6.9,57,0.00,,,0.00,WUHU216HW,2013-03-11 09:07:00,
2013-03-11 05:12:00,45.5,31.6,30.10,ESE,113,2.5,6.9,58,0.00,,,0.00,WUHU216HW,2013-03-11 09:12:00,
2013-03-11 05:17:00,45.2,31.7,30.10,South,180,3.1,5.4,59,0.00,,,0.00,WUHU216HW,2013-03-11 09:17:00,
2013-03-11 05:22:00,45.0,32.1,30.10,South,180,1.8,4.5,60,0.00,,,0.00,WUHU216HW,2013-03-11 09:22:00,
2013-03-11 05:27:00,45.0,32.1,30.10,East,90,2.7,4.5,60,0.00,,,0.00,WUHU216HW,2013-03-11 09:27:00,
2013-03-11 05:32:00,45.0,32.1,30.10,SSE,158,2.5,4.7,60,0.00,,,0.00,WUHU216HW,2013-03-11 09:32:00,
2013-03-11 05:37:00,45.0,32.1,30.09,SSE,158,4.7,6.5,60,0.00,,,0.00,WUHU216HW,2013-03-11 09:37:00,
2013-03-11 05:42:00,45.0,32.1,30.10,SE,135,4.7,8.1,60,0.00,,,0.00,WUHU216HW,2013-03-11 09:42:00,
2013-03-11 05:47:00,45.0,32.1,30.09,East,90,1.8,8.5,60,0.00,,,0.00,WUHU216HW,2013-03-11 09:47:00,
2013-03-11 05:52:00,45.0,32.1,30.10,SSE,158,4.7,8.5,60,0.00,,,0.00,WUHU216HW,2013-03-11 09:52:00,
2013-03-11 05:57:00,44.8,32.2,30.10,ESE,113,4.7,6.3,61,0.00,,,0.00,WUHU216HW,2013-03-11 09:57:00,
2013-03-11 06:02:00,44.6,32.4,30.09,SE,135,3.1,6.7,62,0.00,,,0.00,WUHU216HW,2013-03-11 10:02:00,
2013-03-11 06:07:00,44.5,32.2,30.09,SSW,203,4.7,6.7,62,0.00,,,0.00,WUHU216HW,2013-03-11 10:07:00,
2013-03-11 06:12:00,44.3,32.0,30.10,SSE,158,2.5,4.9,62,0.00,,,0.00,WUHU216HW,2013-03-11 10:12:00,
2013-03-11 06:17:00,44.3,32.0,30.10,South,180,3.1,4.9,62,0.00,,,0.00,WUHU216HW,2013-03-11 10:17:00,
2013-03-11 06:22:00,44.3,32.0,30.10,ESE,113,3.4,5.4,62,0.00,,,0.00,WUHU216HW,2013-03-11 10:22:00,
2013-03-11 06:27:00,44.3,31.7,30.10,SSW,203,1.1,5.4,61,0.00,,,0.00,WUHU216HW,2013-03-11 10:27:00,
2013-03-11 06:32:00,44.3,32.0,30.10,ESE,113,0.9,2.9,62,0.00,,,0.00,WUHU216HW,2013-03-11 10:32:00,
2013-03-11 06:37:00,44.1,32.0,30.10,SE,135,2.7,4.3,62,0.00,,,0.00,WUHU216HW,2013-03-11 10:37:00,
2013-03-11 06:42:00,44.1,32.0,30.09,East,90,3.4,4.3,62,0.00,,,0.00,WUHU216HW,2013-03-11 10:42:00,
2013-03-11 06:47:00,44.1,32.3,30.09,SE,135,2.5,4.0,63,0.00,,,0.00,WUHU216HW,2013-03-11 10:47:00,
2013-03-11 06:52:00,43.9,32.1,30.10,SSE,158,4.0,5.4,63,0.00,,,0.00,WUHU216HW,2013-03-11 10:52:00,
2013-03-11 06:57:00,43.9,32.1,30.10,ESE,113,2.2,5.4,63,0.00,,,0.00,WUHU216HW,2013-03-11 10:57:00,
2013-03-11 07:02:00,43.7,32.3,30.10,SW,225,1.6,4.7,64,0.00,,,0.00,WUHU216HW,2013-03-11 11:02:00,
2013-03-11 07:07:00,43.6,32.6,30.10,SW,225,2.7,5.8,65,0.00,,,0.00,WUHU216HW,2013-03-11 11:07:00,
2013-03-11 07:12:00,43.4,32.4,30.10,SE,135,2.9,6.3,65,0.00,,,0.00,WUHU216HW,2013-03-11 11:12:00,
2013-03-11 07:17:00,43.2,32.6,30.10,ESE,113,3.8,6.3,66,0.00,,,0.00,WUHU216HW,2013-03-11 11:17:00,
2013-03-11 07:22:00,43.2,33.0,30.09,SE,135,6.3,7.4,67,0.00,,,0.00,WUHU216HW,2013-03-11 11:22:00,
2013-03-11 07:27:00,43.2,33.0,30.09,SSE,158,3.4,7.4,67,0.00,,,0.00,WUHU216HW,2013-03-11 11:27:00,
2013-03-11 07:32:00,43.2,33.0,30.10,South,180,1.8,6.5,67,0.00,,,0.00,WUHU216HW,2013-03-11 11:32:00,
2013-03-11 07:37:00,43.2,33.0,30.10,ESE,113,0.9,6.3,67,0.00,,,0.00,WUHU216HW,2013-03-11 11:37:00,
2013-03-11 07:42:00,43.2,33.4,30.10,SSE,158,2.7,6.3,68,0.00,,,0.00,WUHU216HW,2013-03-11 11:42:00,
2013-03-11 07:47:00,43.2,33.0,30.10,SSE,158,2.5,4.0,67,0.00,,,0.00,WUHU216HW,2013-03-11 11:47:00,
2013-03-11 07:52:00,43.2,33.0,30.10,South,180,1.3,4.0,67,0.00,,,0.00,WUHU216HW,2013-03-11 11:52:00,
2013-03-11 07:57:00,43.2,33.0,30.10,ESE,113,2.9,4.9,67,0.00,,,0.00,WUHU216HW,2013-03-11 11:57:00,
2013-03-11 08:02:00,43.6,33.0,30.10,SSE,158,3.4,6.0,66,0.00,,,0.00,WUHU216HW,2013-03-11 12:02:00,
2013-03-11 08:07:00,43.6,33.0,30.10,SE,135,5.4,6.0,66,0.00,,,0.00,WUHU216HW,2013-03-11 12:07:00,
2013-03-11 08:12:00,43.6,33.0,30.11,South,180,1.6,5.6,66,0.00,,,0.00,WUHU216HW,2013-03-11 12:12:00,
2013-03-11 08:17:00,43.6,33.3,30.11,SE,135,6.9,7.4,67,0.00,,,0.00,WUHU216HW,2013-03-11 12:17:00,
2013-03-11 08:22:00,43.6,33.3,30.10,SE,135,3.4,7.4,67,0.00,,,0.00,WUHU216HW,2013-03-11 12:22:00,
2013-03-11 08:27:00,43.6,33.3,30.10,South,180,4.7,7.2,67,0.00,,,0.00,WUHU216HW,2013-03-11 12:27:00,
2013-03-11 08:32:00,43.6,33.8,30.11,SSW,203,2.0,7.2,68,0.00,,,0.00,WUHU216HW,2013-03-11 12:32:00,
2013-03-11 08:37:00,43.6,33.8,30.11,SW,225,4.3,5.4,68,0.00,,,0.00,WUHU216HW,2013-03-11 12:37:00,
2013-03-11 08:42:00,43.6,33.8,30.10,SE,135,1.8,4.3,68,0.00,,,0.00,WUHU216HW,2013-03-11 12:42:00,
2013-03-11 08:47:00,43.7,33.1,30.10,ESE,113,1.1,4.5,66,0.00,,,0.00,WUHU216HW,2013-03-11 12:47:00,
2013-03-11 08:52:00,43.9,32.9,30.11,SE,135,2.5,4.5,65,0.00,,,0.00,WUHU216HW,2013-03-11 12:52:00,
2013-03-11 08:57:00,44.3,32.9,30.11,ESE,113,3.8,4.3,64,0.00,,,0.00,WUHU216HW,2013-03-11 12:57:00,
2013-03-11 09:02:00,44.5,32.7,30.11,ESE,113,1.1,6.9,63,0.00,,,0.00,WUHU216HW,2013-03-11 13:02:00,
2013-03-11 09:07:00,44.5,32.7,30.10,SW,225,2.5,6.9,63,0.00,,,0.00,WUHU216HW,2013-03-11 13:07:00,
2013-03-11 09:12:00,44.6,32.9,30.10,SSE,158,4.0,5.1,63,0.00,,,0.00,WUHU216HW,2013-03-11 13:12:00,
2013-03-11 09:17:00,44.6,32.9,30.10,SE,135,1.1,5.6,63,0.00,,,0.00,WUHU216HW,2013-03-11 13:17:00,
2013-03-11 09:22:00,44.8,32.9,30.10,SW,225,2.5,5.6,63,0.00,,,0.00,WUHU216HW,2013-03-11 13:22:00,
2013-03-11 09:27:00,45.0,33.1,30.10,South,180,4.0,5.6,63,0.00,,,0.00,WUHU216HW,2013-03-11 13:27:00,
2013-03-11 09:33:00,45.0,33.1,30.10,SSE,158,2.9,7.4,63,0.00,,,0.00,WUHU216HW,2013-03-11 13:33:00,
2013-03-11 09:38:00,45.4,33.1,30.10,SE,135,3.4,7.4,62,0.00,,,0.00,WUHU216HW,2013-03-11 13:38:00,
2013-03-11 09:43:00,45.5,33.3,30.10,South,180,2.0,5.4,62,0.00,,,0.00,WUHU216HW,2013-03-11 13:43:00,
2013-03-11 09:48:00,45.7,33.4,30.10,ESE,113,5.1,5.4,62,0.00,,,0.00,WUHU216HW,2013-03-11 13:48:00,
2013-03-11 09:53:00,45.9,34.0,30.10,SE,135,2.9,5.4,63,0.00,,,0.00,WUHU216HW,2013-03-11 13:53:00,
2013-03-11 09:57:00,46.1,33.8,30.10,SSW,203,5.1,6.3,62,0.00,,,0.00,WUHU216HW,2013-03-11 13:57:00,
2013-03-11 10:03:00,46.3,33.9,30.10,SE,135,2.7,6.3,62,0.00,,,0.00,WUHU216HW,2013-03-11 14:03:00,
2013-03-11 10:08:00,46.3,33.6,30.10,SSE,158,2.5,6.5,61,0.00,,,0.00,WUHU216HW,2013-03-11 14:08:00,
2013-03-11 10:13:00,46.3,33.6,30.10,SSE,158,5.8,8.3,61,0.00,,,0.00,WUHU216HW,2013-03-11 14:13:00,
2013-03-11 10:18:00,46.3,33.6,30.10,SE,135,4.7,8.3,61,0.00,,,0.00,WUHU216HW,2013-03-11 14:18:00,
2013-03-11 10:22:00,46.4,33.3,30.10,ESE,113,5.6,8.3,60,0.00,,,0.00,WUHU216HW,2013-03-11 14:22:00,
2013-03-11 10:27:00,46.6,33.8,30.10,SE,135,2.5,6.7,61,0.00,,,0.00,WUHU216HW,2013-03-11 14:27:00,
2013-03-11 10:33:00,46.8,33.2,30.10,ESE,113,5.4,6.7,59,0.00,,,0.00,WUHU216HW,2013-03-11 14:33:00,
2013-03-11 10:38:00,47.0,33.4,30.10,ESE,113,5.8,5.8,59,0.00,,,0.00,WUHU216HW,2013-03-11 14:38:00,
2013-03-11 10:43:00,47.2,33.6,30.10,SE,135,3.8,8.5,59,0.00,,,0.00,WUHU216HW,2013-03-11 14:43:00,
2013-03-11 10:48:00,47.7,33.7,30.10,SSE,158,4.0,8.5,58,0.00,,,0.00,WUHU216HW,2013-03-11 14:48:00,
2013-03-11 10:53:00,47.9,33.4,30.10,SSE,158,6.3,9.2,57,0.00,,,0.00,WUHU216HW,2013-03-11 14:53:00,
2013-03-11 10:58:00,48.2,33.7,30.10,SE,135,4.9,9.2,57,0.00,,,0.00,WUHU216HW,2013-03-11 14:58:00,
2013-03-11 11:03:00,48.6,33.6,30.10,SE,135,7.2,8.5,56,0.00,,,0.00,WUHU216HW,2013-03-11 15:03:00,
2013-03-11 11:08:00,49.0,34.4,30.10,SE,135,5.6,8.5,57,0.00,,,0.00,WUHU216HW,2013-03-11 15:08:00,
2013-03-11 11:13:00,49.7,34.1,30.09,SE,135,7.6,7.6,55,0.00,,,0.00,WUHU216HW,2013-03-11 15:13:00,
2013-03-11 11:18:00,50.4,34.4,30.09,SSW,203,3.4,7.6,54,0.00,,,0.00,WUHU216HW,2013-03-11 15:18:00,
2013-03-11 11:23:00,50.8,32.9,30.09,SE,135,3.1,7.6,50,0.00,,,0.00,WUHU216HW,2013-03-11 15:23:00,
2013-03-11 11:28:00,50.9,33.5,30.09,ESE,113,5.8,6.0,51,0.00,,,0.00,WUHU216HW,2013-03-11 15:28:00,
2013-03-11 11:33:00,51.3,33.4,30.09,SSE,158,3.8,7.6,50,0.00,,,0.00,WUHU216HW,2013-03-11 15:33:00,
2013-03-11 11:38:00,51.5,33.9,30.09,ESE,113,3.4,7.6,51,0.00,,,0.00,WUHU216HW,2013-03-11 15:38:00,
2013-03-11 11:43:00,51.8,33.8,30.09,East,90,3.8,7.4,50,0.00,,,0.00,WUHU216HW,2013-03-11 15:43:00,
2013-03-11 11:48:00,51.7,34.1,30.08,SE,135,4.0,7.6,51,0.00,,,0.00,WUHU216HW,2013-03-11 15:48:00,
2013-03-11 11:53:00,52.2,33.6,30.08,SE,135,7.6,7.6,49,0.00,,,0.00,WUHU216HW,2013-03-11 15:53:00,
2013-03-11 11:58:00,51.8,34.3,30.07,SE,135,5.1,8.1,51,0.00,,,0.00,WUHU216HW,2013-03-11 15:58:00,
2013-03-11 12:03:00,52.2,33.6,30.07,SSE,158,5.4,8.1,49,0.00,,,0.00,WUHU216HW,2013-03-11 16:03:00,
2013-03-11 12:08:00,52.6,33.9,30.07,SE,135,3.6,7.8,49,0.00,,,0.00,WUHU216HW,2013-03-11 16:08:00,
2013-03-11 12:13:00,52.7,33.6,30.07,SE,135,3.4,7.8,48,0.00,,,0.00,WUHU216HW,2013-03-11 16:13:00,
2013-03-11 12:18:00,52.9,33.7,30.07,SSE,158,2.5,7.8,48,0.00,,,0.00,WUHU216HW,2013-03-11 16:18:00,
2013-03-11 12:23:00,53.1,33.3,30.07,SSW,203,4.0,7.8,47,0.00,,,0.00,WUHU216HW,2013-03-11 16:23:00,
2013-03-11 12:28:00,53.3,33.0,30.07,ESE,113,3.4,6.9,46,0.00,,,0.00,WUHU216HW,2013-03-11 16:28:00,
2013-03-11 12:33:00,53.3,33.0,30.07,SW,225,5.4,7.4,46,0.00,,,0.00,WUHU216HW,2013-03-11 16:33:00,
2013-03-11 12:38:00,53.1,32.8,30.07,SSE,158,6.5,7.4,46,0.00,,,0.00,WUHU216HW,2013-03-11 16:38:00,
2013-03-11 12:43:00,53.1,32.8,30.07,WSW,248,4.0,6.5,46,0.00,,,0.00,WUHU216HW,2013-03-11 16:43:00,
2013-03-11 12:48:00,53.3,33.0,30.07,South,180,1.1,9.8,46,0.00,,,0.00,WUHU216HW,2013-03-11 16:48:00,
2013-03-11 12:53:00,53.3,33.0,30.07,SE,135,7.6,9.8,46,0.00,,,0.00,WUHU216HW,2013-03-11 16:53:00,
2013-03-11 12:58:00,53.3,33.0,30.07,SE,135,3.4,7.6,46,0.00,,,0.00,WUHU216HW,2013-03-11 16:58:00,
2013-03-11 13:03:00,53.5,33.0,30.06,East,90,3.8,7.6,46,0.00,,,0.00,WUHU216HW,2013-03-11 17:03:00,
2013-03-11 13:08:00,53.6,33.2,30.06,SW,225,3.8,6.3,46,0.00,,,0.00,WUHU216HW,2013-03-11 17:08:00,
2013-03-11 13:13:00,53.6,33.2,30.06,ESE,113,4.0,6.9,46,0.00,,,0.00,WUHU216HW,2013-03-11 17:13:00,
2013-03-11 13:18:00,53.6,32.7,30.06,SW,225,5.6,6.9,45,0.00,,,0.00,WUHU216HW,2013-03-11 17:18:00,
2013-03-11 13:23:00,53.8,33.4,30.05,ESE,113,1.1,6.9,46,0.00,,,0.00,WUHU216HW,2013-03-11 17:23:00,
2013-03-11 13:28:00,54.2,32.0,30.05,SE,135,5.4,7.4,43,0.00,,,0.00,WUHU216HW,2013-03-11 17:28:00,
2013-03-11 13:33:00,54.0,31.9,30.04,SSE,158,5.4,7.4,43,0.00,,,0.00,WUHU216HW,2013-03-11 17:33:00,
2013-03-11 13:38:00,54.2,31.0,30.05,SSW,203,4.7,6.7,41,0.00,,,0.00,WUHU216HW,2013-03-11 17:38:00,
2013-03-11 13:43:00,54.4,30.5,30.05,SSE,158,5.8,9.2,40,0.00,,,0.00,WUHU216HW,2013-03-11 17:43:00,
2013-03-11 13:48:00,54.4,31.1,30.04,SE,135,2.9,9.2,41,0.00,,,0.00,WUHU216HW,2013-03-11 17:48:00,
2013-03-11 13:53:00,54.4,31.1,30.04,SE,135,3.8,7.4,41,0.00,,,0.00,WUHU216HW,2013-03-11 17:53:00,
2013-03-11 13:58:00,54.7,32.0,30.04,ENE,68,1.6,6.9,42,0.00,,,0.00,WUHU216HW,2013-03-11 17:58:00,
2013-03-11 14:03:00,54.9,31.6,30.04,SE,135,5.4,6.9,41,0.00,,,0.00,WUHU216HW,2013-03-11 18:03:00,
2013-03-11 14:08:00,54.7,31.4,30.03,SSE,158,4.9,8.1,41,0.00,,,0.00,WUHU216HW,2013-03-11 18:08:00,
2013-03-11 14:13:00,54.7,31.4,30.02,SE,135,4.7,8.1,41,0.00,,,0.00,WUHU216HW,2013-03-11 18:13:00,
2013-03-11 14:18:00,55.1,31.1,30.02,ESE,113,6.5,6.5,40,0.00,,,0.00,WUHU216HW,2013-03-11 18:18:00,
2013-03-11 14:23:00,55.6,31.7,30.02,SW,225,1.3,7.2,40,0.00,,,0.00,WUHU216HW,2013-03-11 18:23:00,
2013-03-11 14:28:00,56.2,31.4,30.02,ESE,113,5.6,7.2,39,0.00,,,0.00,WUHU216HW,2013-03-11 18:28:00,
2013-03-11 14:33:00,56.9,32.1,30.02,SSE,158,2.9,6.9,39,0.00,,,0.00,WUHU216HW,2013-03-11 18:33:00,
2013-03-11 14:38:00,58.1,32.5,30.02,SSE,158,6.5,6.9,38,0.00,,,0.00,WUHU216HW,2013-03-11 18:38:00,
2013-03-11 14:43:00,58.0,31.7,30.02,East,90,5.8,10.5,37,0.00,,,0.00,WUHU216HW,2013-03-11 18:43:00,
2013-03-11 14:48:00,57.1,31.6,30.02,SE,135,5.6,11.4,38,0.00,,,0.00,WUHU216HW,2013-03-11 18:48:00,
2013-03-11 14:53:00,56.9,32.1,30.01,SSE,158,6.7,11.4,39,0.00,,,0.00,WUHU216HW,2013-03-11 18:53:00,
2013-03-11 14:58:00,57.1,32.9,30.01,NNE,23,2.7,8.5,40,0.00,,,0.00,WUHU216HW,2013-03-11 18:58:00,
2013-03-11 15:03:00,57.1,33.6,30.01,SE,135,6.3,11.4,41,0.00,,,0.00,WUHU216HW,2013-03-11 19:03:00,
2013-03-11 15:08:00,56.9,33.4,30.00,ESE,113,10.7,11.4,41,0.00,,,0.00,WUHU216HW,2013-03-11 19:08:00,
2013-03-11 15:13:00,56.9,34.5,30.00,SE,135,4.5,10.7,43,0.00,,,0.00,WUHU216HW,2013-03-11 19:13:00,
2013-03-11 15:18:00,57.1,35.3,29.99,SSE,158,6.3,10.7,44,0.00,,,0.00,WUHU216HW,2013-03-11 19:18:00,
2013-03-11 15:23:00,57.1,36.4,30.00,SW,225,2.5,10.1,46,0.00,,,0.00,WUHU216HW,2013-03-11 19:23:00,
2013-03-11 15:28:00,56.9,36.8,30.00,SE,135,6.9,9.8,47,0.00,,,0.00,WUHU216HW,2013-03-11 19:28:00,
2013-03-11 15:33:00,56.5,37.6,29.99,SSW,203,4.0,9.8,49,0.00,,,0.00,WUHU216HW,2013-03-11 19:33:00,
2013-03-11 15:38:00,56.3,38.0,29.99,SE,135,5.1,9.4,50,0.00,,,0.00,WUHU216HW,2013-03-11 19:38:00,
2013-03-11 15:43:00,56.5,38.6,29.99,ESE,113,7.2,8.7,51,0.00,,,0.00,WUHU216HW,2013-03-11 19:43:00,
2013-03-11 15:48:00,56.3,39.4,29.99,SE,135,4.7,8.5,53,0.00,,,0.00,WUHU216HW,2013-03-11 19:48:00,
2013-03-11 15:53:00,56.3,39.9,29.99,SSE,158,4.0,8.5,54,0.00,,,0.00,WUHU216HW,2013-03-11 19:53:00,
2013-03-11 15:58:00,56.5,40.1,29.99,SSE,158,3.4,9.6,54,0.00,,,0.00,WUHU216HW,2013-03-11 19:58:00,
2013-03-11 16:03:00,56.7,40.7,29.99,SE,135,6.9,13.2,55,0.00,,,0.00,WUHU216HW,2013-03-11 20:03:00,
2013-03-11 16:08:00,56.5,41.0,29.98,South,180,5.4,13.2,56,0.00,,,0.00,WUHU216HW,2013-03-11 20:08:00,
2013-03-11 16:13:00,56.5,41.4,29.99,South,180,4.0,8.7,57,0.00,,,0.00,WUHU216HW,2013-03-11 20:13:00,
2013-03-11 16:18:00,56.5,42.4,29.98,SE,135,11.4,12.8,59,0.00,,,0.00,WUHU216HW,2013-03-11 20:18:00,
2013-03-11 16:23:00,56.2,42.5,29.98,SSE,158,2.5,12.8,60,0.00,,,0.00,WUHU216HW,2013-03-11 20:23:00,
2013-03-11 16:28:00,56.0,42.8,29.98,SE,135,3.1,11.4,61,0.00,,,0.00,WUHU216HW,2013-03-11 20:28:00,
2013-03-11 16:33:00,55.8,42.9,29.98,SSW,203,3.6,10.1,62,0.00,,,0.00,WUHU216HW,2013-03-11 20:33:00,
2013-03-11 16:38:00,55.6,42.8,29.97,SE,135,7.4,10.1,62,0.00,,,0.00,WUHU216HW,2013-03-11 20:38:00,
2013-03-11 16:43:00,55.3,42.4,29.97,ESE,113,5.4,9.4,62,0.00,,,0.00,WUHU216HW,2013-03-11 20:43:00,
2013-03-11 16:48:00,55.1,42.7,29.97,SSE,158,5.4,9.6,63,0.00,,,0.00,WUHU216HW,2013-03-11 20:48:00,
2013-03-11 16:53:00,54.9,42.5,29.96,ESE,113,4.3,9.6,63,0.00,,,0.00,WUHU216HW,2013-03-11 20:53:00,
2013-03-11 16:58:00,54.7,42.8,29.96,ESE,113,7.6,7.8,64,0.00,,,0.00,WUHU216HW,2013-03-11 20:58:00,
2013-03-11 17:03:00,54.7,42.8,29.96,SE,135,3.4,9.4,64,0.00,,,0.00,WUHU216HW,2013-03-11 21:03:00,
2013-03-11 17:08:00,54.7,42.8,29.96,SSE,158,4.7,9.4,64,0.00,,,0.00,WUHU216HW,2013-03-11 21:08:00,
2013-03-11 17:13:00,54.5,43.0,29.95,East,90,2.2,6.9,65,0.00,,,0.00,WUHU216HW,2013-03-11 21:13:00,
2013-03-11 17:18:00,54.5,43.4,29.96,SE,135,2.7,4.7,66,0.00,,,0.00,WUHU216HW,2013-03-11 21:18:00,
2013-03-11 17:23:00,54.5,43.4,29.96,West,270,3.4,5.1,66,0.00,,,0.00,WUHU216HW,2013-03-11 21:23:00,
2013-03-11 17:28:00,54.5,43.4,29.96,SE,135,3.6,5.1,66,0.00,,,0.00,WUHU216HW,2013-03-11 21:28:00,
2013-03-11 17:33:00,54.5,43.4,29.97,SSW,203,3.1,5.1,66,0.00,,,0.00,WUHU216HW,2013-03-11 21:33:00,
2013-03-11 17:38:00,54.5,43.4,29.97,ESE,113,0.9,4.5,66,0.00,,,0.00,WUHU216HW,2013-03-11 21:38:00,
2013-03-11 17:43:00,54.5,43.8,29.97,South,180,1.8,4.5,67,0.00,,,0.00,WUHU216HW,2013-03-11 21:43:00,
2013-03-11 17:48:00,54.5,43.8,29.97,WSW,248,2.5,6.5,67,0.00,,,0.00,WUHU216HW,2013-03-11 21:48:00,
2013-03-11 17:53:00,54.5,43.8,29.97,SSE,158,2.0,6.5,67,0.00,,,0.00,WUHU216HW,2013-03-11 21:53:00,
2013-03-11 17:58:00,54.7,44.4,29.97,SE,135,2.0,5.8,68,0.00,,,0.00,WUHU216HW,2013-03-11 21:58:00,
2013-03-11 18:03:00,54.7,44.4,29.97,SSE,158,1.3,5.8,68,0.00,,,0.00,WUHU216HW,2013-03-11 22:03:00,
2013-03-11 18:08:00,54.7,43.9,29.97,SSW,203,0.4,3.4,67,0.00,,,0.00,WUHU216HW,2013-03-11 22:08:00,
2013-03-11 18:13:00,54.7,44.4,29.97,SSE,158,1.6,2.7,68,0.00,,,0.00,WUHU216HW,2013-03-11 22:13:00,
2013-03-11 18:18:00,54.7,44.7,29.97,SE,135,4.3,4.3,69,0.00,,,0.00,WUHU216HW,2013-03-11 22:18:00,
2013-03-11 18:23:00,54.7,44.7,29.97,SE,135,2.2,5.4,69,0.00,,,0.00,WUHU216HW,2013-03-11 22:23:00,
2013-03-11 18:28:00,54.7,44.7,29.96,SSE,158,2.9,5.4,69,0.00,,,0.00,WUHU216HW,2013-03-11 22:28:00,
2013-03-11 18:33:00,54.7,44.7,29.96,SSE,158,1.8,4.0,69,0.00,,,0.00,WUHU216HW,2013-03-11 22:33:00,
2013-03-11 18:38:00,54.5,45.0,29.95,ESE,113,2.0,3.4,70,0.00,,,0.00,WUHU216HW,2013-03-11 22:38:00,
2013-03-11 18:43:00,54.5,45.0,29.95,ESE,113,4.3,4.3,70,0.00,,,0.00,WUHU216HW,2013-03-11 22:43:00,
2013-03-11 18:48:00,54.5,45.0,29.95,SSW,203,1.3,4.3,70,0.00,,,0.00,WUHU216HW,2013-03-11 22:48:00,
2013-03-11 18:53:00,54.7,45.2,29.95,WSW,248,1.3,4.3,70,0.00,,,0.00,WUHU216HW,2013-03-11 22:53:00,
2013-03-11 18:58:00,54.7,45.2,29.95,South,180,1.1,3.1,70,0.00,,,0.00,WUHU216HW,2013-03-11 22:58:00,
2013-03-11 19:03:00,54.7,45.6,29.96,South,180,2.0,3.1,71,0.00,,,0.00,WUHU216HW,2013-03-11 23:03:00,
2013-03-11 19:08:00,54.7,45.2,29.96,South,180,1.1,3.1,70,0.00,,,0.00,WUHU216HW,2013-03-11 23:08:00,
2013-03-11 19:13:00,54.7,45.6,29.95,SW,225,2.0,3.1,71,0.00,,,0.00,WUHU216HW,2013-03-11 23:13:00,
2013-03-11 19:18:00,54.7,45.9,29.95,SSW,203,0.7,3.4,72,0.00,,,0.00,WUHU216HW,2013-03-11 23:18:00,
2013-03-11 19:23:00,54.9,46.1,29.95,WSW,248,2.0,3.4,72,0.00,,,0.00,WUHU216HW,2013-03-11 23:23:00,
2013-03-11 19:29:00,54.9,46.1,29.96,SW,225,2.5,3.1,72,0.00,,,0.00,WUHU216HW,2013-03-11 23:29:00,
2013-03-11 19:34:00,54.7,45.6,29.96,South,180,0.0,2.9,71,0.00,,,0.00,WUHU216HW,2013-03-11 23:34:00,
2013-03-11 19:39:00,54.7,45.9,29.96,SSW,203,1.8,2.7,72,0.00,,,0.00,WUHU216HW,2013-03-11 23:39:00,
2013-03-11 19:44:00,54.7,45.6,29.96,SW,225,1.1,2.5,71,0.00,,,0.00,WUHU216HW,2013-03-11 23:44:00,
2013-03-11 19:49:00,54.9,45.7,29.96,SE,135,0.4,2.5,71,0.00,,,0.00,WUHU216HW,2013-03-11 23:49:00,
2013-03-11 19:54:00,55.1,46.3,29.96,SSW,203,2.5,3.4,72,0.00,,,0.00,WUHU216HW,2013-03-11 23:54:00,
2013-03-11 19:59:00,55.1,46.3,29.96,ESE,113,1.6,3.4,72,0.00,,,0.00,WUHU216HW,2013-03-11 23:59:00,
2013-03-11 20:04:00,54.9,46.1,29.96,SE,135,1.8,3.4,72,0.00,,,0.00,WUHU216HW,2013-03-12 00:04:00,
2013-03-11 20:09:00,54.9,46.1,29.96,SE,135,2.0,3.4,72,0.00,,,0.00,WUHU216HW,2013-03-12 00:09:00,
2013-03-11 20:14:00,54.9,46.5,29.95,ESE,113,2.7,2.7,73,0.00,,,0.00,WUHU216HW,2013-03-12 00:14:00,
2013-03-11 20:19:00,54.7,46.3,29.95,East,90,2.2,3.8,73,0.00,,,0.00,WUHU216HW,2013-03-12 00:19:00,
2013-03-11 20:24:00,54.4,45.9,29.94,ESE,113,2.5,3.8,73,0.00,,,0.00,WUHU216HW,2013-03-12 00:24:00,
2013-03-11 20:29:00,54.2,46.1,29.94,ESE,113,4.0,4.7,74,0.00,,,0.00,WUHU216HW,2013-03-12 00:29:00,
2013-03-11 20:34:00,54.0,45.9,29.94,SSE,158,2.7,4.7,74,0.00,,,0.00,WUHU216HW,2013-03-12 00:34:00,
2013-03-11 20:39:00,53.6,45.9,29.94,ESE,113,3.1,4.0,75,0.00,,,0.00,WUHU216HW,2013-03-12 00:39:00,
2013-03-11 20:44:00,53.5,45.7,29.94,SE,135,1.8,3.6,75,0.00,,,0.00,WUHU216HW,2013-03-12 00:44:00,
2013-03-11 20:49:00,53.3,45.5,29.94,ESE,113,1.1,3.6,75,0.00,,,0.00,WUHU216HW,2013-03-12 00:49:00,
2013-03-11 20:54:00,53.3,45.5,29.94,ESE,113,1.8,3.4,75,0.00,,,0.00,WUHU216HW,2013-03-12 00:54:00,
2013-03-11 20:59:00,53.3,45.5,29.95,East,90,1.3,3.1,75,0.00,,,0.00,WUHU216HW,2013-03-12 00:59:00,
2013-03-11 21:04:00,53.1,45.4,29.94,ESE,113,1.3,3.1,75,0.00,,,0.00,WUHU216HW,2013-03-12 01:04:00,
2013-03-11 21:09:00,53.1,45.4,29.93,East,90,4.0,4.0,75,0.00,,,0.00,WUHU216HW,2013-03-12 01:09:00,
2013-03-11 21:14:00,53.3,45.5,29.92,East,90,3.1,4.0,75,0.00,,,0.00,WUHU216HW,2013-03-12 01:14:00,
2013-03-11 21:19:00,53.3,45.5,29.92,ENE,68,1.1,4.0,75,0.00,,,0.00,WUHU216HW,2013-03-12 01:19:00,
2013-03-11 21:24:00,53.1,45.4,29.92,ENE,68,1.8,3.4,75,0.00,,,0.00,WUHU216HW,2013-03-12 01:24:00,
2013-03-11 21:29:00,53.1,45.4,29.93,ESE,113,1.3,2.5,75,0.00,,,0.00,WUHU216HW,2013-03-12 01:29:00,
2013-03-11 21:34:00,53.1,45.0,29.92,NNE,23,1.6,2.5,74,0.00,,,0.00,WUHU216HW,2013-03-12 01:34:00,
2013-03-11 21:39:00,53.3,45.2,29.92,North,0,0.2,2.5,74,0.00,,,0.00,WUHU216HW,2013-03-12 01:39:00,
2013-03-11 21:44:00,53.3,45.5,29.93,SW,225,0.4,1.6,75,0.00,,,0.00,WUHU216HW,2013-03-12 01:44:00,
2013-03-11 21:49:00,53.3,45.9,29.94,SSE,158,1.1,2.0,76,0.00,,,0.00,WUHU216HW,2013-03-12 01:49:00,
2013-03-11 21:54:00,53.6,46.3,29.94,SE,135,2.0,2.0,76,0.00,,,0.00,WUHU216HW,2013-03-12 01:54:00,
2013-03-11 21:59:00,54.4,46.6,29.94,SE,135,4.0,4.0,75,0.00,,,0.00,WUHU216HW,2013-03-12 01:59:00,
2013-03-11 22:04:00,55.1,47.3,29.93,SE,135,2.7,6.3,75,0.00,,,0.00,WUHU216HW,2013-03-12 02:04:00,
2013-03-11 22:09:00,54.9,47.1,29.93,SE,135,5.4,6.3,75,0.00,,,0.00,WUHU216HW,2013-03-12 02:09:00,
2013-03-11 22:14:00,55.1,46.9,29.93,SE,135,3.4,5.8,74,0.00,,,0.00,WUHU216HW,2013-03-12 02:14:00,
2013-03-11 22:19:00,55.3,47.1,29.92,SE,135,4.9,5.4,74,0.00,,,0.00,WUHU216HW,2013-03-12 02:19:00,
2013-03-11 22:24:00,55.6,47.1,29.91,SE,135,6.7,6.7,73,0.00,,,0.00,WUHU216HW,2013-03-12 02:24:00,
2013-03-11 22:29:00,56.2,47.3,29.91,SSE,158,2.7,7.2,72,0.00,,,0.00,WUHU216HW,2013-03-12 02:29:00,
2013-03-11 22:34:00,56.2,47.3,29.90,SE,135,1.8,7.2,72,0.00,,,0.00,WUHU216HW,2013-03-12 02:34:00,
2013-03-11 22:39:00,56.0,47.1,29.90,SSE,158,5.1,5.4,72,0.00,,,0.00,WUHU216HW,2013-03-12 02:39:00,
2013-03-11 22:44:00,55.8,47.3,29.89,SE,135,2.9,5.1,73,0.00,,,0.00,WUHU216HW,2013-03-12 02:44:00,
2013-03-11 22:49:00,55.6,47.1,29.89,SSE,158,2.9,6.3,73,0.00,,,0.00,WUHU216HW,2013-03-12 02:49:00,
2013-03-11 22:54:00,55.4,47.6,29.88,SSE,158,3.1,7.8,75,0.00,,,0.00,WUHU216HW,2013-03-12 02:54:00,
2013-03-11 22:59:00,55.3,47.4,29.88,SE,135,4.0,9.2,75,0.00,,,0.00,WUHU216HW,2013-03-12 02:59:00,
2013-03-11 23:04:00,55.3,47.4,29.88,SW,225,5.4,9.2,75,0.00,,,0.00,WUHU216HW,2013-03-12 03:04:00,
2013-03-11 23:09:00,55.4,47.6,29.88,SSW,203,4.0,6.9,75,0.00,,,0.00,WUHU216HW,2013-03-12 03:09:00,
2013-03-11 23:14:00,55.3,47.1,29.88,SW,225,3.1,5.6,74,0.00,,,0.00,WUHU216HW,2013-03-12 03:14:00,
2013-03-11 23:19:00,55.3,47.4,29.89,South,180,5.8,6.3,75,0.00,,,0.00,WUHU216HW,2013-03-12 03:19:00,
2013-03-11 23:24:00,55.3,47.4,29.88,SE,135,2.5,6.3,75,0.00,,,0.00,WUHU216HW,2013-03-12 03:24:00,
2013-03-11 23:29:00,55.3,47.8,29.88,SSE,158,5.1,8.7,76,0.00,,,0.00,WUHU216HW,2013-03-12 03:29:00,
2013-03-11 23:34:00,55.4,47.6,29.87,WSW,248,6.0,8.7,75,0.00,,,0.00,WUHU216HW,2013-03-12 03:34:00,
2013-03-11 23:39:00,55.3,47.8,29.87,South,180,5.6,8.5,76,0.00,,,0.00,WUHU216HW,2013-03-12 03:39:00,
2013-03-11 23:44:00,55.1,47.6,29.86,South,180,3.8,6.0,76,0.00,,,0.00,WUHU216HW,2013-03-12 03:44:00,
2013-03-11 23:49:00,55.1,47.6,29.86,SSW,203,2.9,6.3,76,0.00,,,0.00,WUHU216HW,2013-03-12 03:49:00,
2013-03-11 23:54:00,55.1,47.6,29.86,West,270,4.7,6.3,76,0.00,,,0.00,WUHU216HW,2013-03-12 03:54:00,
2013-03-11 23:59:00,55.1,47.6,29.86,SW,225,2.5,6.3,76,0.00,,,0.00,WUHU216HW,2013-03-12 03:59:00,